Location: Devils Tower National Monument
(44.5904°N, 104.7201°W)
Time: 07:37:43
(UTC-07:00)

Envisat - Pass Details

Date: 31 January 2020
Orbit: 764 x 766 km, 98.1° (Epoch: 28 February)

Event Time Altitude Azimuth Distance (km) Brightness Sun altitude
Rises 18:25:19 0° 188° (S) 3,216 6.5 -14.3°
Reaches altitude 10° 18:27:47 10° 196° (SSW) 2,295 5.8 -14.7°
Maximum altitude 18:32:26 36° 263° (W) 1,190 4.7 -15.6°
Drops below altitude 10° 18:37:07 10° 330° (NNW) 2,310 5.7 -16.4°
Sets 18:39:37 0° 339° (NNW) 3,241 6.4 -16.8°
